When you browse on this site, cookies collect data to enhance your experience and personalize the content and advertising you see.
Visit our Privacy Policy to learn more. By continuing to use the site, you agree to this use of cookies and data.
  • En España
  • Lista de países
  • Para 7 días
  • Temperatura del agua
  • El tiempo en el mapa
  • Informadores
  • user-avatar
    Iniciar sesión

    Tiempo cada hora Málaga

    Hoy, 17 Febrero, Lunes

    Tiempo Temperatura Precipitaciones Viento Presión Humedad
    00:00 +16°C° 0 mm 2 mps 768 mmHg 69%
    01:00 +16°C° 0 mm 2 mps 768 mmHg 69%
    02:00 +15°C° 0 mm 2 mps 768 mmHg 68%
    03:00 +15°C° 0 mm 2 mps 767 mmHg 68%
    04:00 +15°C° 0 mm 2 mps 767 mmHg 67%
    05:00 +15°C° 0 mm 2 mps 767 mmHg 67%
    06:00 +15°C° 0 mm 2 mps 767 mmHg 67%
    07:00 +16°C° 0 mm 2 mps 768 mmHg 64%
    08:00 +17°C° 0 mm 2 mps 768 mmHg 62%
    09:00 +18°C° 0 mm 3 mps 768 mmHg 60%
    10:00 +20°C° 0 mm 3 mps 768 mmHg 54%
    11:00 +21°C° 0 mm 3 mps 768 mmHg 48%
    12:00 +24°C° 0 mm 3 mps 768 mmHg 42%
    13:00 +24°C° 0 mm 3 mps 767 mmHg 43%
    14:00 +23°C° 0 mm 4 mps 767 mmHg 43%
    15:00 +25°C° 0 mm 5 mps 766 mmHg 44%
    16:00 +22°C° 0 mm 5 mps 766 mmHg 50%
    17:00 +20°C° 0 mm 4 mps 767 mmHg 56%
    18:00 +19°C° 0 mm 4 mps 767 mmHg 63%
    19:00 +18°C° 0 mm 4 mps 767 mmHg 65%
    20:00 +17°C° 0 mm 4 mps 767 mmHg 67%
    21:00 +17°C° 0 mm 3 mps 768 mmHg 69%
    22:00 +17°C° 0 mm 3 mps 768 mmHg 71%
    23:00 +17°C° 0 mm 2 mps 767 mmHg 73%

    Mañana, 18 Febrero, Martes

    Tiempo Temperatura Precipitaciones Viento Presión Humedad
    00:00 +16°C° 0 mm 2 mps 767 mmHg 75%
    01:00 +16°C° 0 mm 2 mps 767 mmHg 76%
    02:00 +16°C° 0 mm 2 mps 767 mmHg 77%
    03:00 +16°C° 0 mm 1 mps 767 mmHg 78%
    04:00 +16°C° 0 mm 1 mps 767 mmHg 76%
    05:00 +16°C° 0 mm 1 mps 767 mmHg 75%
    06:00 +16°C° 0 mm 1 mps 767 mmHg 73%
    07:00 +17°C° 0 mm 2 mps 767 mmHg 71%
    08:00 +17°C° 0 mm 3 mps 768 mmHg 69%
    09:00 +18°C° 0 mm 3 mps 768 mmHg 67%
    10:00 +19°C° 0 mm 4 mps 768 mmHg 66%
    11:00 +19°C° 0 mm 4 mps 768 mmHg 65%
    12:00 +20°C° 0 mm 5 mps 768 mmHg 63%
    13:00 +20°C° 0 mm 4 mps 768 mmHg 63%
    14:00 +20°C° 0 mm 3 mps 767 mmHg 64%
    15:00 +20°C° 0 mm 3 mps 767 mmHg 64%
    16:00 +18°C° 0 mm 3 mps 767 mmHg 71%
    17:00 +17°C° 0 mm 2 mps 767 mmHg 77%
    18:00 +16°C° 0 mm 2 mps 767 mmHg 84%
    19:00 +16°C° 0.1 mm 2 mps 768 mmHg 86%
    20:00 +16°C° 0.1 mm 2 mps 768 mmHg 88%
    21:00 +16°C° 0.1 mm 2 mps 768 mmHg 90%
    22:00 +16°C° 0.1 mm 3 mps 768 mmHg 91%
    23:00 +16°C° 0.1 mm 3 mps 768 mmHg 92%

    Pasado mañana, 19 Febrero, Miércoles

    Tiempo Temperatura Precipitaciones Viento Presión Humedad
    00:00 +16°C° 0.1 mm 3 mps 768 mmHg 92%
    01:00 +14°C° 0 mm 3 mps 768 mmHg 92%
    02:00 +14°C° 0 mm 3 mps 768 mmHg 92%
    03:00 +14°C° 0 mm 3 mps 768 mmHg 92%
    04:00 +14°C° 0 mm 3 mps 768 mmHg 92%
    05:00 +14°C° 0 mm 3 mps 768 mmHg 92%
    06:00 +15°C° 0 mm 2 mps 768 mmHg 91%
    07:00 +14°C° 0.1 mm 3 mps 768 mmHg 90%
    08:00 +14°C° 0.1 mm 3 mps 768 mmHg 88%
    09:00 +15°C° 0.1 mm 4 mps 769 mmHg 87%
    10:00 +15°C° 0.1 mm 4 mps 769 mmHg 86%
    11:00 +15°C° 0.1 mm 4 mps 769 mmHg 86%
    12:00 +15°C° 0.1 mm 4 mps 769 mmHg 85%
    13:00 +15°C° 0 mm 4 mps 768 mmHg 83%
    14:00 +15°C° 0 mm 4 mps 768 mmHg 81%
    15:00 +15°C° 0 mm 4 mps 767 mmHg 79%
    16:00 +15°C° 0 mm 4 mps 767 mmHg 81%
    17:00 +15°C° 0 mm 4 mps 767 mmHg 83%
    18:00 +14°C° 0 mm 4 mps 767 mmHg 85%
    19:00 +14°C° 0 mm 4 mps 767 mmHg 85%
    20:00 +14°C° 0 mm 4 mps 768 mmHg 86%
    21:00 +14°C° 0 mm 3 mps 768 mmHg 86%
    22:00 +13°C° 0 mm 3 mps 768 mmHg 87%
    23:00 +13°C° 0 mm 3 mps 767 mmHg 88%

    20 Febrero, Jueves

    Tiempo Temperatura Precipitaciones Viento Presión Humedad
    00:00 +12°C° 0 mm 3 mps 767 mmHg 89%
    01:00 +12°C° 0 mm 3 mps 767 mmHg 89%
    02:00 +12°C° 0 mm 3 mps 767 mmHg 88%
    03:00 +12°C° 0 mm 3 mps 766 mmHg 87%
    04:00 +12°C° 0 mm 3 mps 766 mmHg 88%
    05:00 +13°C° 0 mm 2 mps 766 mmHg 89%
    06:00 +13°C° 0 mm 2 mps 765 mmHg 90%
    07:00 +14°C° 0 mm 2 mps 765 mmHg 86%
    08:00 +14°C° 0 mm 2 mps 765 mmHg 81%
    09:00 +15°C° 0 mm 1 mps 765 mmHg 77%
    10:00 +16°C° 0 mm 1 mps 765 mmHg 72%
    11:00 +17°C° 0 mm 2 mps 765 mmHg 66%
    12:00 +18°C° 0 mm 2 mps 764 mmHg 61%
    13:00 +19°C° 0 mm 2 mps 764 mmHg 61%
    14:00 +19°C° 0 mm 2 mps 763 mmHg 61%
    15:00 +19°C° 0 mm 2 mps 762 mmHg 60%
    16:00 +19°C° 0 mm 1 mps 762 mmHg 67%
    17:00 +18°C° 0 mm 1 mps 762 mmHg 73%
    18:00 +15°C° 0 mm 1 mps 762 mmHg 79%
    19:00 +15°C° 0 mm 1 mps 762 mmHg 81%
    20:00 +13°C° 0 mm 0 mps 762 mmHg 83%
    21:00 +13°C° 0 mm 0 mps 763 mmHg 85%
    22:00 +13°C° 0 mm 0 mps 763 mmHg 86%
    23:00 +13°C° 0 mm 1 mps 763 mmHg 87%

    21 Febrero, Viernes

    Tiempo Temperatura Precipitaciones Viento Presión Humedad
    00:00 +13°C° 0 mm 1 mps 763 mmHg 89%
    01:00 +13°C° 0 mm 1 mps 763 mmHg 89%
    02:00 +13°C° 0 mm 1 mps 763 mmHg 90%
    03:00 +12°C° 0 mm 1 mps 763 mmHg 91%
    04:00 +13°C° 0 mm 2 mps 763 mmHg 92%
    05:00 +13°C° 0 mm 2 mps 763 mmHg 92%
    06:00 +13°C° 0 mm 2 mps 764 mmHg 92%
    13:00 +18°C° 0 mm 3 mps 767 mmHg 63%
    14:00 +18°C° 0 mm 4 mps 767 mmHg 65%
    15:00 +18°C° 0 mm 4 mps 766 mmHg 67%
    16:00 +18°C° 0 mm 4 mps 767 mmHg 71%
    17:00 +17°C° 0 mm 4 mps 767 mmHg 75%
    18:00 +15°C° 0 mm 4 mps 767 mmHg 80%
    19:00 +15°C° 0 mm 4 mps 768 mmHg 82%
    20:00 +14°C° 0 mm 3 mps 769 mmHg 84%
    21:00 +14°C° 0 mm 3 mps 770 mmHg 86%
    22:00 +14°C° 0 mm 3 mps 770 mmHg 86%
    23:00 +14°C° 0 mm 3 mps 770 mmHg 87%

    22 Febrero, Sábado

    Tiempo Temperatura Precipitaciones Viento Presión Humedad
    00:00 +14°C° 0 mm 3 mps 771 mmHg 87%
    01:00 +14°C° 0 mm 3 mps 771 mmHg 88%
    02:00 +13°C° 0 mm 3 mps 771 mmHg 88%
    03:00 +14°C° 0 mm 2 mps 770 mmHg 89%
    04:00 +13°C° 0 mm 3 mps 771 mmHg 89%
    05:00 +13°C° 0 mm 3 mps 771 mmHg 88%
    06:00 +12°C° 0 mm 3 mps 771 mmHg 88%
    07:00 +13°C° 0 mm 4 mps 771 mmHg 87%
    08:00 +13°C° 0 mm 4 mps 771 mmHg 86%
    09:00 +14°C° 0 mm 4 mps 772 mmHg 85%
    10:00 +14°C° 0 mm 4 mps 772 mmHg 82%
    11:00 +15°C° 0 mm 4 mps 772 mmHg 79%
    12:00 +15°C° 0 mm 4 mps 772 mmHg 76%
    13:00 +15°C° 0 mm 4 mps 771 mmHg 74%
    14:00 +17°C° 0 mm 4 mps 771 mmHg 72%
    15:00 +17°C° 0 mm 4 mps 770 mmHg 70%
    16:00 +15°C° 0 mm 4 mps 770 mmHg 74%
    17:00 +14°C° 0 mm 4 mps 771 mmHg 77%
    18:00 +14°C° 0 mm 4 mps 771 mmHg 80%
    19:00 +13°C° 0 mm 4 mps 771 mmHg 82%
    20:00 +13°C° 0 mm 3 mps 771 mmHg 83%
    21:00 +13°C° 0 mm 3 mps 772 mmHg 84%
    22:00 +12°C° 0 mm 3 mps 772 mmHg 85%
    23:00 +12°C° 0 mm 3 mps 772 mmHg 86%
    Mostrar más